Location: Evergreen Manor
(41.4083°N, 81.4939°W)
Time: 03:56:04
(UTC+00:00)

Okean O Rocket - Pass Details

Date: 11 December 2019
Orbit: 624 x 644 km, 98.2° (Epoch: 26 January)

Event Time Altitude Azimuth Distance (km) Brightness Sun altitude
Rises 11:08:43 0° 12° (NNE) 2,931 5.0 -16.8°
Reaches altitude 10° 11:10:55 10° 11° (N) 2,022 4.1 -16.4°
Maximum altitude 11:15:19 82° 286° (WNW) 646 1.5 -15.6°
Drops below altitude 10° 11:19:44 10° 198° (SSW) 2,019 4.2 -14.9°
Sets 11:21:55 0° 197° (SSW) 2,926 5.0 -14.5°
